Ames, IA

7:43 PM CDT on April 27, 2017 (GMT -0500)
Ames Municipal

Weather History for KAMW - September, 2012

Change the Weather History Date:

Wednesday, September 12, 2012

  Actual Average Record
Temperature  
Mean Temperature 66 °F 64 °F  
Max Temperature 80 °F 77 °F 91 °F (1998)
Min Temperature 51 °F 52 °F 37 °F (2007)
Degree Days  
Heating Degree Days 0 3  
Month to date heating degree days 9 24  
Since 1 July heating degree days 27 40  
Cooling Degree Days 1 2  
Month to date cooling degree days 60 36  
Year to date cooling degree days 1063 719  
Growing Degree Days 18 (Base 50)    
Moisture  
Dew Point 53 °F    
Average Humidity 62    
Maximum Humidity 86    
Minimum Humidity 37    
Precipitation  
Precipitation 0.09 in 0.10 in 1.15 in (1991)
Month to date precipitation 1.99 1.36  
Sea Level Pressure  
Sea Level Pressure 30.08 in    
Wind  
Wind Speed 11 mph (NE)    
Max Wind Speed 30 mph    
Max Gust Speed 41 mph    
Visibility 10 miles    
Events Rain    
T = Trace of Precipitation, MM = Missing Value Source: NWS Daily Summary

Daily Weather History Graph

Daily Weather History Graph

Search for Another Location

Airport or City:

Trip Planner

Search our weather history database for the weather conditions in past years. The results will help you decide how hot, cold, wet, or windy it might be!

Date:

Astronomy

Sep. 12, 2012 Rise Set
Actual Time 6:52 AM CDT 7:28 PM CDT
Civil Twilight 6:23 AM CDT 7:56 PM CDT
Nautical Twilight 5:50 AM CDT 8:29 PM CDT
Astronomical Twilight 5:16 AM CDT 9:03 PM CDT
Moon 3:06 AM CDT (9/12) 5:18 PM CDT (9/12)
Length of Visible Light 13h 32m
Length of Day
12h 36m
Waning Crescent, 13% of the Moon is Illuminated
Sep 12
Waning Crescent
Sep 15
New
Sep 22
First Quarter
Sep 29
Full
Oct 8
Last Quarter

Hourly Weather History & Observations

Time (CDT) Temp. Dew Point Humidity Pressure Visibility Wind Dir Wind Speed Gust Speed Precip Events Conditions
12:53 AM 66.0 °F 54.0 °F 65% 29.94 in 10.0 mi SSE 5.8 mph - N/A   Clear
1:53 AM 62.1 °F 54.0 °F 75% 29.95 in 10.0 mi SE 4.6 mph - N/A   Clear
2:53 AM 61.0 °F 54.0 °F 78% 29.96 in 10.0 mi SE 5.8 mph - N/A   Clear
3:53 AM 57.9 °F 54.0 °F 87% 29.96 in 10.0 mi SE 3.5 mph - N/A   Clear
4:53 AM 61.0 °F 55.0 °F 81% 29.96 in 10.0 mi SE 3.5 mph - N/A   Partly Cloudy
5:53 AM 61.0 °F 55.9 °F 83% 30.00 in 10.0 mi Calm Calm - N/A   Scattered Clouds
6:53 AM 60.1 °F 55.9 °F 86% 30.02 in 10.0 mi Calm Calm - N/A   Mostly Cloudy
7:53 AM 62.1 °F 57.0 °F 84% 30.04 in 10.0 mi SE 3.5 mph - N/A   Clear
8:53 AM 64.9 °F 57.9 °F 78% 30.03 in 10.0 mi SE 4.6 mph - N/A   Clear
9:53 AM 69.1 °F 60.1 °F 73% 30.04 in 10.0 mi SE 3.5 mph - N/A   Scattered Clouds
10:53 AM 73.9 °F 59.0 °F 59% 30.06 in 10.0 mi SSW 4.6 mph - N/A   Clear
11:53 AM 79.0 °F 59.0 °F 50% 30.06 in 10.0 mi NNW 9.2 mph - N/A   Clear
12:53 PM 75.9 °F 60.1 °F 58% 30.06 in 10.0 mi North 6.9 mph - N/A   Clear
1:53 PM 79.0 °F 60.1 °F 52% 30.07 in 10.0 mi North 8.1 mph - N/A   Mostly Cloudy
2:53 PM 75.9 °F 59.0 °F 56% 30.06 in 10.0 mi North 17.3 mph - N/A   Mostly Cloudy
3:53 PM 70.0 °F 50.0 °F 49% 30.10 in 10.0 mi North 23.0 mph 34.5 mph N/A   Overcast
4:53 PM 66.9 °F 39.9 °F 37% 30.10 in 10.0 mi North 25.3 mph 32.2 mph N/A   Overcast
5:53 PM 64.0 °F 41.0 °F 43% 30.12 in 10.0 mi North 21.9 mph 26.5 mph 0.00 in   Overcast
6:53 PM 62.1 °F 45.0 °F 53% 30.15 in 10.0 mi NNE 21.9 mph 28.8 mph N/A   Overcast
7:53 PM 61.0 °F 46.9 °F 60% 30.16 in 10.0 mi NNE 16.1 mph 24.2 mph N/A   Overcast
8:53 PM 60.1 °F 46.9 °F 62% 30.19 in 10.0 mi North 15.0 mph 23.0 mph N/A   Overcast
9:53 PM 59.0 °F 50.0 °F 72% 30.18 in 10.0 mi NNE 17.3 mph - N/A   Overcast
10:26 PM 57.2 °F 51.8 °F 82% 30.21 in 10.0 mi NNE 12.7 mph - N/A   Overcast
10:46 PM 57.2 °F 53.6 °F 88% 30.22 in 6.0 mi North 15.0 mph 20.7 mph N/A   Overcast
10:53 PM 57.0 °F 54.0 °F 89% 30.20 in 6.0 mi North 13.8 mph - N/A   Overcast
11:53 PM 55.9 °F 53.1 °F 90% 30.27 in 10.0 mi NNW 11.5 mph 20.7 mph 0.00 in Rain Light Rain